Temp
-12 -12 -12 -12 -12 -12 -12 -12 -12 -12 -12 -12 -12 -12 -12 -13 -13 -13 -14 -14 -14 -14 -15 -16 -16 -17 -17 -17 -17 -17 -17 -17 -17 -17 -17 -17 -17 -17 -17 -16 -15 -15 -14 -14 -15 -15 -15 -16 -16 -16 -16 -16 -16 -16 -16 -16 -16 -16 -16 -16 -16 -16 -17
-12 -12 -12 -12 -12 -12 -12 -12 -12 -12 -12 -12 -12 -12 -13 -13 -13 -14 -14 -14 -15 -15 -16 -16 -17 -17 -17 -17 -17 -17 -17 -17 -17 -17 -17 -17 -17 -17 -17 -17 -16 -15 -15 -14 -14 -15 -16 -16 -16 -16 -16 -16 -16 -16 -16 -16 -16 -16 -16 -17 -17 -17 -18
-13 -13 -12 -12 -12 -12 -12 -12 -12 -12 -12 -13 -13 -13 -13 -13 -14 -14 -15 -15 -16 -16 -16 -17 -17 -17 -17 -17 -17 -18 -18 -17 -17 -17 -17 -18 -18 -17 -17 -17 -16 -16 -15 -15 -14 -15 -16 -16 -16 -16 -16 -17 -16 -16 -16 -16 -16 -17 -17 -17 -17 -17 -18
-13 -13 -13 -13 -13 -13 -12 -13 -13 -13 -13 -13 -13 -13 -13 -14 -14 -15 -15 -16 -16 -16 -17 -17 -17 -17 -17 -17 -18 -18 -18 -18 -18 -18 -17 -17 -18 -17 -17 -17 -17 -16 -16 -15 -15 -15 -16 -16 -16 -17 -17 -17 -17 -17 -17 -17 -17 -17 -17 -17 -17 -18 -18
-13 -13 -13 -13 -13 -13 -13 -13 -13 -13 -13 -13 -13 -13 -14 -14 -15 -15 -15 -16 -16 -17 -17 -17 -17 -18 -18 -18 -18 -18 -18 -18 -18 -17 -17 -17 -17 -17 -17 -17 -17 -17 -16 -16 -16 -16 -16 -17 -17 -17 -17 -17 -17 -17 -17 -17 -17 -16 -17 -17 -17 -17 -18
-13 -13 -13 -13 -13 -13 -13 -13 -13 -13 -13 -13 -13 -14 -14 -15 -15 -15 -16 -16 -17 -17 -17 -17 -17 -18 -18 -18 -17 -18 -18 -18 -18 -17 -17 -17 -17 -17 -17 -17 -17 -17 -17 -17 -16 -16 -16 -17 -17 -17 -17 -18 -17 -17 -17 -16 -16 -16 -16 -17 -17 -17 -19
-13 -13 -13 -13 -13 -13 -13 -13 -14 -14 -14 -14 -14 -14 -14 -15 -15 -16 -16 -17 -17 -17 -17 -18 -18 -18 -18 -18 -18 -18 -18 -18 -17 -17 -17 -17 -17 -17 -17 -17 -17 -17 -17 -17 -17 -17 -17 -17 -17 -17 -17 -17 -17 -17 -17 -16 -15 -15 -16 -17 -17 -17 -19
-13 -14 -14 -14 -13 -14 -14 -14 -14 -14 -14 -14 -14 -14 -15 -15 -16 -16 -17 -17 -17 -18 -18 -18 -18 -18 -18 -18 -18 -18 -18 -18 -17 -17 -17 -17 -17 -17 -17 -17 -17 -17 -17 -17 -17 -17 -17 -17 -17 -18 -18 -17 -17 -17 -16 -16 -16 -15 -16 -17 -17 -18 -19
-14 -14 -14 -14 -14 -14 -14 -14 -14 -14 -14 -14 -15 -15 -15 -15 -16 -16 -17 -17 -18 -18 -18 -18 -18 -18 -18 -18 -18 -18 -18 -18 -18 -17 -17 -17 -17 -17 -17 -17 -17 -17 -17 -17 -17 -17 -17 -17 -17 -18 -18 -17 -17 -17 -16 -16 -16 -16 -17 -17 -17 -18 -19
-14 -14 -14 -14 -14 -14 -14 -14 -15 -15 -15 -15 -15 -15 -15 -15 -16 -16 -17 -17 -18 -18 -18 -18 -18 -18 -18 -18 -18 -18 -18 -18 -18 -18 -17 -17 -17 -17 -17 -17 -17 -17 -17 -17 -17 -17 -17 -17 -18 -18 -18 -17 -17 -17 -17 -17 -17 -17 -17 -17 -17 -18 -19
-14 -14 -14 -14 -14 -14 -15 -15 -15 -15 -15 -15 -15 -15 -15 -16 -16 -17 -17 -18 -18 -18 -18 -18 -18 -18 -18 -18 -18 -18 -18 -18 -17 -18 -17 -17 -17 -17 -17 -17 -17 -17 -17 -17 -17 -17 -18 -18 -18 -18 -18 -18 -18 -17 -17 -17 -17 -18 -18 -18 -18 -18 -19
-14 -14 -14 -14 -15 -15 -15 -15 -15 -15 -15 -16 -16 -15 -15 -16 -16 -17 -17 -18 -18 -18 -18 -18 -18 -18 -18 -18 -18 -18 -18 -17 -17 -17 -17 -17 -17 -17 -17 -17 -17 -17 -17 -17 -17 -17 -18 -19 -18 -18 -18 -18 -18 -18 -18 -18 -18 -18 -19 -18 -18 -18 -19
-14 -14 -15 -15 -15 -15 -16 -16 -16 -16 -16 -16 -16 -16 -16 -16 -17 -17 -17 -18 -18 -18 -18 -18 -17 -17 -18 -18 -18 -18 -17 -17 -17 -17 -17 -17 -17 -17 -17 -17 -17 -17 -17 -17 -18 -18 -18 -19 -18 -18 -18 -19 -18 -18 -18 -18 -18 -19 -19 -19 -19 -19 -20
-15 -15 -15 -15 -15 -16 -16 -16 -16 -16 -16 -16 -16 -16 -16 -17 -17 -17 -17 -18 -18 -18 -18 -17 -17 -17 -17 -18 -18 -18 -17 -17 -17 -17 -17 -17 -17 -17 -17 -17 -18 -18 -18 -18 -18 -18 -18 -19 -19 -18 -19 -19 -19 -19 -19 -18 -18 -19 -19 -19 -19 -20 -21
-15 -15 -15 -15 -15 -16 -16 -17 -17 -17 -17 -17 -17 -17 -17 -17 -17 -17 -18 -18 -18 -18 -18 -17 -17 -17 -17 -18 -18 -18 -17 -17 -17 -17 -17 -17 -17 -17 -17 -18 -18 -18 -18 -18 -19 -19 -19 -19 -19 -19 -19 -19 -19 -19 -19 -19 -19 -20 -19 -19 -20 -21 -22
-15 -15 -15 -16 -16 -16 -17 -17 -17 -17 -17 -17 -17 -17 -17 -17 -18 -18 -18 -18 -18 -18 -18 -18 -18 -18 -18 -18 -18 -18 -17 -17 -17 -17 -17 -17 -17 -17 -17 -18 -18 -18 -18 -19 -19 -19 -19 -19 -19 -19 -19 -20 -20 -19 -19 -19 -20 -21 -21 -20 -21 -21 -22
-15 -15 -15 -16 -16 -16 -17 -17 -18 -17 -17 -18 -18 -18 -18 -18 -18 -18 -18 -18 -19 -18 -18 -18 -18 -18 -18 -18 -17 -17 -17 -17 -17 -17 -16 -17 -17 -17 -17 -18 -18 -18 -18 -19 -19 -19 -19 -19 -20 -20 -20 -20 -20 -20 -20 -20 -21 -21 -22 -22 -22 -22 -22
-15 -16 -16 -16 -17 -17 -17 -18 -18 -18 -18 -18 -18 -18 -18 -18 -18 -18 -18 -19 -19 -19 -19 -19 -19 -18 -18 -17 -17 -17 -17 -17 -17 -16 -16 -16 -16 -17 -17 -18 -18 -18 -19 -19 -19 -20 -20 -20 -20 -20 -20 -21 -21 -21 -21 -21 -21 -22 -22 -22 -23 -23 -23
-15 -16 -16 -17 -17 -17 -17 -18 -18 -18 -18 -18 -19 -18 -18 -18 -18 -18 -18 -19 -18 -18 -19 -19 -18 -18 -18 -17 -17 -17 -17 -17 -17 -16 -16 -16 -16 -17 -17 -18 -18 -19 -19 -19 -20 -20 -20 -20 -20 -20 -20 -21 -21 -21 -22 -22 -22 -22 -23 -23 -23 -24 -24
-16 -16 -17 -17 -17 -17 -18 -18 -18 -19 -19 -19 -19 -19 -19 -18 -18 -18 -18 -18 -18 -18 -19 -19 -18 -18 -18 -17 -17 -17 -17 -17 -17 -16 -16 -17 -17 -17 -17 -18 -18 -19 -19 -19 -19 -20 -20 -20 -20 -20 -21 -21 -21 -22 -22 -22 -23 -23 -23 -23 -24 -24 -25
-16 -16 -17 -18 -18 -18 -18 -18 -18 -19 -19 -19 -19 -19 -19 -18 -18 -18 -18 -18 -18 -18 -18 -18 -18 -18 -18 -18 -17 -17 -17 -17 -17 -17 -17 -17 -17 -17 -18 -18 -18 -19 -19 -19 -19 -19 -20 -20 -20 -21 -21 -21 -22 -22 -22 -22 -23 -23 -24 -24 -24 -25 -25
-17 -17 -17 -18 -18 -18 -18 -18 -19 -19 -19 -19 -19 -19 -19 -19 -18 -19 -18 -18 -18 -18 -18 -18 -18 -18 -18 -18 -18 -18 -17 -17 -17 -17 -17 -17 -17 -18 -18 -18 -18 -19 -19 -19 -19 -20 -20 -20 -20 -21 -21 -22 -22 -22 -22 -23 -23 -23 -24 -24 -25 -25 -25
-17 -17 -17 -18 -18 -19 -19 -19 -19 -19 -19 -19 -19 -19 -19 -19 -19 -19 -19 -18 -18 -18 -18 -18 -18 -18 -18 -18 -18 -17 -17 -17 -17 -17 -17 -18 -18 -18 -18 -18 -18 -19 -19 -19 -19 -20 -20 -20 -21 -21 -21 -22 -22 -23 -23 -23 -23 -23 -24 -24 -25 -26 -26
-17 -17 -17 -18 -18 -19 -19 -19 -19 -19 -19 -19 -19 -19 -19 -19 -19 -19 -19 -19 -18 -18 -18 -18 -18 -18 -18 -18 -17 -17 -17 -17 -17 -17 -18 -18 -18 -18 -18 -18 -19 -19 -19 -19 -20 -20 -20 -21 -21 -21 -22 -22 -23 -23 -23 -23 -23 -23 -24 -24 -25 -26 -26
-18 -17 -18 -18 -18 -19 -19 -19 -19 -20 -20 -20 -19 -19 -19 -19 -19 -19 -19 -18 -18 -18 -18 -18 -18 -18 -17 -17 -17 -17 -17 -18 -18 -18 -18 -18 -18 -18 -18 -18 -18 -19 -19 -19 -20 -20 -20 -21 -21 -21 -22 -22 -23 -23 -23 -23 -23 -24 -24 -25 -25 -25 -26
-17 -18 -18 -18 -18 -19 -19 -20 -20 -20 -20 -20 -19 -19 -19 -19 -19 -19 -19 -18 -18 -18 -18 -18 -18 -18 -17 -17 -17 -17 -18 -18 -18 -18 -18 -18 -18 -18 -18 -18 -19 -19 -19 -20 -20 -20 -20 -21 -21 -22 -22 -23 -23 -23 -23 -23 -23 -24 -24 -25 -25 -25 -26
-18 -18 -18 -18 -19 -19 -19 -19 -20 -20 -20 -19 -19 -19 -19 -19 -19 -19 -18 -18 -18 -18 -18 -18 -18 -17 -17 -17 -17 -17 -18 -18 -18 -18 -18 -18 -18 -18 -18 -19 -19 -19 -19 -20 -20 -20 -20 -21 -21 -22 -22 -23 -23 -23 -24 -24 -24 -24 -24 -25 -25 -25 -25
-18 -18 -18 -18 -19 -19 -19 -19 -20 -20 -20 -19 -19 -19 -19 -19 -19 -18 -18 -18 -18 -18 -18 -18 -18 -18 -17 -17 -17 -17 -18 -18 -18 -18 -18 -18 -18 -19 -19 -19 -19 -19 -19 -20 -20 -20 -20 -21 -22 -22 -22 -23 -23 -24 -24 -24 -24 -24 -25 -25 -25 -25 -26
-18 -19 -19 -19 -19 -19 -19 -19 -20 -20 -19 -19 -19 -19 -19 -19 -18 -18 -18 -18 -18 -18 -18 -18 -18 -18 -18 -17 -17 -18 -18 -18 -18 -18 -18 -18 -19 -19 -19 -19 -19 -19 -19 -20 -20 -20 -20 -21 -21 -22 -22 -23 -23 -24 -24 -24 -24 -24 -25 -25 -25 -26 -26
-19 -19 -19 -19 -19 -19 -19 -19 -19 -19 -19 -19 -19 -19 -19 -19 -18 -18 -18 -18 -18 -17 -17 -17 -17 -18 -17 -17 -17 -18 -18 -18 -18 -18 -18 -19 -19 -19 -19 -19 -19 -19 -20 -20 -20 -20 -21 -21 -21 -22 -22 -23 -23 -24 -24 -24 -25 -25 -25 -25 -26 -26 -26
-19 -19 -19 -19 -19 -19 -20 -19 -19 -19 -19 -19 -19 -19 -19 -19 -18 -18 -18 -18 -17 -17 -17 -17 -17 -17 -17 -17 -17 -18 -18 -18 -18 -18 -18 -18 -19 -19 -19 -19 -19 -20 -20 -20 -20 -20 -21 -21 -21 -22 -23 -23 -23 -24 -24 -24 -25 -25 -25 -26 -26 -26 -26
-19 -19 -20 -20 -20 -19 -19 -19 -19 -19 -19 -19 -19 -19 -19 -19 -18 -18 -18 -18 -17 -17 -17 -17 -17 -17 -17 -17 -18 -18 -18 -18 -18 -18 -18 -18 -19 -19 -19 -19 -19 -20 -20 -20 -20 -21 -21 -21 -22 -22 -23 -23 -24 -24 -24 -24 -25 -25 -25 -26 -26 -26 -26
-20 -20 -20 -20 -20 -20 -20 -19 -19 -19 -19 -19 -19 -19 -19 -18 -18 -18 -18 -18 -17 -17 -17 -17 -17 -17 -18 -18 -18 -18 -18 -18 -18 -18 -18 -18 -19 -19 -19 -19 -19 -20 -20 -20 -21 -21 -21 -22 -22 -23 -23 -23 -24 -24 -24 -25 -25 -25 -26 -26 -26 -27 -27
-20 -20 -20 -20 -20 -20 -20 -20 -19 -19 -19 -19 -19 -19 -19 -18 -18 -18 -18 -18 -18 -18 -18 -18 -18 -18 -18 -18 -18 -18 -18 -18 -18 -18 -18 -19 -19 -19 -19 -19 -20 -20 -20 -20 -21 -21 -22 -22 -22 -23 -23 -23 -24 -24 -25 -25 -25 -26 -26 -26 -26 -27 -27
-21 -21 -21 -21 -21 -21 -20 -20 -20 -20 -20 -19 -19 -19 -19 -18 -18 -18 -18 -18 -18 -18 -18 -18 -18 -18 -18 -18 -18 -18 -18 -18 -18 -19 -19 -19 -19 -19 -19 -19 -20 -20 -20 -20 -21 -21 -22 -22 -23 -23 -23 -24 -24 -24 -25 -25 -26 -26 -26 -26 -27 -27 -27
-21 -22 -22 -21 -21 -21 -20 -20 -20 -20 -20 -20 -19 -19 -18 -18 -18 -18 -18 -18 -18 -18 -18 -18 -18 -18 -18 -18 -18 -18 -18 -19 -19 -19 -19 -19 -19 -19 -19 -20 -20 -20 -20 -20 -21 -21 -22 -22 -22 -23 -23 -24 -24 -24 -25 -25 -26 -26 -26 -27 -27 -27 -27
Height
3032 3031 3030 3029 3027 3025 3024 3022 3021 3019 3017 3015 3013 3011 3009 3007 3005 3003 3000 2998 2995 2993 2991 2990 2988 2986 2983 2981 2980 2979 2976 2974 2971 2969 2967 2964 2962 2960 2958 2955 2952 2949 2948 2948 2947 2945 2944 2942 2940 2937 2935 2932 2930 2927 2925 2923 2920 2918 2914 2912 2909 2905 2902
3028 3027 3026 3024 3022 3021 3019 3017 3016 3014 3012 3010 3008 3007 3005 3002 3000 2998 2996 2994 2991 2989 2987 2985 2984 2982 2979 2977 2976 2975 2972 2970 2967 2965 2963 2961 2958 2956 2954 2952 2949 2947 2944 2942 2941 2940 2939 2938 2935 2933 2931 2928 2924 2922 2920 2918 2915 2912 2910 2906 2903 2899 2896
3024 3023 3021 3020 3018 3016 3015 3013 3011 3009 3007 3005 3003 3002 3000 2998 2996 2993 2991 2989 2987 2985 2983 2982 2980 2978 2975 2974 2972 2970 2968 2965 2963 2961 2959 2957 2954 2952 2951 2948 2946 2943 2940 2937 2935 2935 2934 2933 2931 2929 2927 2923 2919 2917 2915 2912 2910 2906 2904 2901 2897 2893 2891
3020 3018 3017 3015 3014 3012 3010 3008 3006 3004 3002 3000 2998 2996 2995 2993 2991 2989 2987 2985 2983 2981 2979 2978 2977 2974 2972 2970 2968 2966 2964 2961 2959 2957 2955 2953 2951 2948 2946 2945 2942 2940 2937 2933 2930 2930 2929 2927 2926 2924 2922 2918 2914 2913 2911 2907 2904 2900 2898 2895 2891 2888 2885
3015 3014 3012 3010 3009 3007 3005 3003 3001 2999 2997 2994 2992 2991 2990 2988 2986 2984 2983 2981 2979 2977 2976 2974 2973 2970 2968 2966 2964 2962 2960 2957 2955 2953 2951 2949 2947 2944 2942 2940 2938 2936 2933 2930 2926 2925 2924 2923 2921 2919 2918 2914 2909 2906 2905 2902 2898 2895 2892 2889 2886 2882 2879
3010 3009 3007 3006 3004 3002 3000 2998 2996 2994 2991 2989 2987 2986 2985 2983 2982 2980 2978 2977 2975 2973 2972 2970 2968 2966 2964 2962 2960 2958 2955 2953 2951 2948 2946 2945 2942 2940 2938 2936 2934 2932 2929 2926 2923 2921 2919 2918 2916 2914 2912 2909 2905 2900 2897 2895 2892 2889 2887 2883 2880 2877 2874
3005 3004 3002 3001 2999 2997 2995 2993 2991 2989 2987 2985 2983 2982 2980 2979 2977 2976 2974 2972 2971 2969 2968 2966 2964 2962 2960 2958 2956 2954 2951 2949 2946 2944 2942 2940 2938 2936 2933 2931 2929 2927 2925 2922 2919 2918 2916 2913 2912 2909 2906 2903 2900 2895 2891 2888 2885 2882 2880 2877 2873 2871 2868
3000 2999 2997 2995 2994 2992 2990 2989 2986 2984 2982 2980 2979 2977 2975 2974 2972 2971 2969 2968 2967 2965 2963 2961 2960 2958 2956 2953 2951 2949 2946 2944 2942 2939 2937 2936 2933 2931 2929 2927 2925 2923 2920 2918 2915 2914 2912 2909 2907 2905 2901 2898 2894 2890 2887 2884 2880 2876 2874 2870 2866 2863 2861
2996 2994 2992 2991 2989 2987 2985 2984 2982 2979 2977 2975 2974 2972 2970 2969 2967 2966 2965 2964 2962 2961 2959 2957 2955 2953 2951 2949 2946 2944 2941 2939 2937 2934 2932 2930 2928 2926 2924 2922 2920 2918 2916 2913 2911 2910 2908 2905 2902 2900 2896 2893 2889 2885 2882 2879 2875 2871 2868 2864 2860 2858 2855
2991 2989 2988 2986 2984 2982 2981 2979 2977 2974 2972 2970 2968 2967 2965 2964 2963 2961 2960 2959 2958 2956 2954 2952 2950 2948 2946 2944 2942 2940 2937 2935 2933 2930 2928 2925 2923 2921 2919 2918 2916 2914 2912 2909 2907 2905 2903 2900 2897 2894 2891 2887 2884 2880 2877 2873 2869 2866 2862 2857 2854 2852 2850
2986 2984 2983 2981 2980 2978 2976 2974 2972 2969 2967 2965 2963 2961 2960 2959 2958 2957 2955 2953 2952 2951 2949 2947 2946 2944 2942 2940 2938 2935 2933 2931 2928 2926 2924 2922 2919 2917 2915 2913 2911 2909 2907 2905 2902 2900 2899 2895 2891 2889 2886 2882 2878 2875 2871 2868 2864 2860 2856 2851 2846 2844 2843
2981 2980 2978 2976 2975 2974 2972 2970 2967 2964 2962 2960 2957 2955 2954 2953 2953 2952 2951 2949 2948 2946 2944 2943 2941 2939 2937 2936 2933 2930 2928 2925 2923 2921 2919 2917 2915 2913 2911 2908 2906 2903 2901 2899 2897 2895 2894 2890 2885 2883 2881 2877 2873 2869 2866 2862 2859 2855 2851 2846 2842 2838 2836
2976 2975 2973 2971 2970 2969 2967 2965 2962 2959 2956 2954 2952 2950 2948 2947 2947 2946 2945 2944 2943 2941 2939 2937 2936 2934 2932 2930 2928 2925 2922 2919 2917 2915 2914 2912 2910 2909 2907 2904 2902 2899 2896 2894 2892 2889 2888 2885 2880 2877 2875 2872 2867 2864 2860 2857 2854 2851 2846 2841 2837 2834 2831
2971 2969 2968 2966 2965 2963 2962 2960 2957 2954 2951 2949 2947 2945 2943 2941 2941 2940 2939 2938 2937 2935 2933 2932 2930 2927 2926 2924 2922 2920 2917 2914 2912 2910 2909 2908 2906 2904 2903 2900 2898 2895 2892 2890 2887 2884 2882 2879 2875 2871 2869 2867 2863 2859 2856 2852 2849 2846 2841 2836 2832 2829 2825
2966 2964 2963 2961 2959 2958 2957 2955 2952 2949 2947 2945 2942 2940 2938 2937 2936 2935 2934 2933 2931 2930 2928 2926 2924 2921 2919 2917 2916 2914 2912 2909 2907 2905 2904 2902 2901 2900 2898 2896 2894 2891 2889 2887 2884 2880 2877 2874 2871 2868 2866 2863 2860 2855 2852 2847 2843 2840 2834 2829 2826 2822 2819
2961 2959 2958 2956 2954 2953 2951 2950 2947 2943 2941 2940 2937 2935 2933 2932 2931 2930 2928 2928 2926 2925 2923 2921 2918 2916 2913 2912 2910 2909 2906 2904 2901 2900 2898 2897 2896 2895 2894 2892 2889 2886 2885 2883 2880 2877 2874 2871 2868 2864 2861 2858 2854 2850 2845 2840 2837 2833 2828 2823 2820 2818 2815
2956 2954 2953 2951 2949 2947 2946 2945 2942 2938 2936 2934 2932 2930 2928 2927 2926 2925 2923 2923 2922 2920 2919 2917 2914 2911 2908 2906 2905 2903 2901 2899 2896 2894 2893 2892 2891 2890 2889 2887 2884 2882 2880 2878 2875 2872 2869 2865 2862 2858 2855 2852 2848 2844 2839 2835 2832 2829 2824 2819 2816 2813 2810
2951 2949 2947 2945 2943 2941 2940 2939 2937 2933 2931 2929 2927 2925 2923 2922 2921 2920 2918 2918 2917 2916 2914 2912 2909 2906 2903 2901 2900 2898 2896 2893 2891 2889 2888 2886 2885 2885 2884 2882 2879 2877 2875 2873 2870 2867 2864 2860 2857 2854 2850 2847 2844 2840 2836 2832 2828 2824 2819 2815 2811 2807 2804
2945 2943 2942 2940 2938 2936 2935 2934 2931 2928 2926 2924 2922 2920 2918 2917 2915 2914 2913 2913 2912 2911 2910 2907 2905 2902 2898 2896 2894 2893 2891 2888 2886 2883 2882 2881 2879 2878 2878 2876 2874 2872 2870 2867 2865 2862 2859 2856 2853 2849 2846 2843 2840 2836 2832 2827 2823 2819 2815 2810 2807 2802 2797
2939 2938 2937 2935 2933 2932 2930 2928 2926 2923 2921 2919 2918 2915 2913 2912 2910 2909 2908 2907 2906 2906 2904 2902 2900 2897 2894 2891 2889 2887 2885 2883 2881 2878 2877 2876 2874 2872 2871 2870 2868 2867 2864 2861 2859 2857 2854 2851 2848 2844 2841 2838 2834 2830 2827 2823 2819 2815 2810 2806 2802 2798 2793
2934 2932 2932 2931 2929 2927 2924 2922 2920 2918 2917 2915 2913 2910 2908 2907 2905 2904 2902 2901 2901 2900 2898 2896 2895 2892 2889 2887 2884 2882 2880 2878 2876 2874 2873 2871 2869 2867 2866 2864 2863 2861 2858 2855 2853 2851 2848 2845 2842 2839 2836 2832 2829 2825 2822 2818 2814 2810 2806 2802 2797 2793 2789
2928 2927 2926 2926 2924 2921 2919 2916 2915 2914 2912 2910 2908 2906 2904 2902 2901 2899 2897 2895 2894 2894 2892 2890 2888 2887 2884 2881 2879 2877 2875 2873 2872 2870 2868 2866 2864 2862 2860 2858 2856 2855 2852 2850 2847 2845 2843 2840 2837 2834 2831 2827 2824 2821 2817 2813 2809 2805 2801 2798 2793 2789 2784
2923 2921 2921 2920 2918 2916 2913 2911 2909 2909 2907 2905 2903 2901 2899 2897 2896 2894 2892 2889 2888 2887 2886 2885 2883 2881 2879 2877 2874 2873 2871 2869 2867 2866 2864 2862 2859 2857 2855 2853 2851 2849 2846 2844 2842 2840 2838 2835 2831 2828 2825 2822 2819 2816 2812 2808 2804 2800 2796 2793 2789 2785 2780
2918 2916 2915 2914 2913 2910 2908 2906 2905 2904 2902 2900 2898 2896 2895 2893 2892 2890 2887 2885 2883 2882 2880 2879 2877 2875 2873 2872 2870 2868 2866 2864 2863 2861 2859 2857 2854 2852 2850 2848 2846 2843 2841 2839 2837 2835 2832 2830 2826 2822 2820 2817 2814 2811 2807 2803 2799 2795 2792 2787 2783 2780 2776
2912 2910 2909 2908 2906 2905 2903 2901 2900 2899 2897 2895 2893 2891 2890 2889 2887 2885 2882 2880 2878 2876 2874 2872 2871 2869 2868 2866 2864 2863 2861 2860 2858 2856 2854 2852 2850 2848 2845 2843 2840 2838 2835 2834 2831 2829 2826 2824 2820 2817 2814 2811 2808 2805 2802 2797 2793 2790 2786 2782 2778 2775 2772
2906 2905 2903 2901 2900 2899 2898 2897 2896 2894 2892 2890 2888 2887 2886 2884 2883 2880 2877 2875 2873 2871 2869 2867 2866 2864 2863 2861 2859 2858 2856 2855 2853 2851 2849 2847 2845 2842 2840 2837 2835 2833 2830 2828 2825 2823 2820 2818 2815 2811 2808 2805 2802 2799 2796 2792 2787 2784 2780 2776 2771 2768 2766
2900 2899 2897 2895 2894 2894 2893 2892 2891 2889 2887 2885 2884 2882 2881 2879 2877 2875 2872 2870 2868 2866 2864 2862 2861 2859 2857 2856 2854 2853 2851 2850 2848 2846 2844 2842 2840 2837 2835 2832 2830 2827 2825 2822 2819 2817 2815 2812 2809 2806 2803 2799 2796 2794 2790 2786 2781 2778 2774 2770 2765 2762 2760
2895 2893 2891 2889 2888 2888 2887 2887 2886 2884 2882 2880 2879 2877 2876 2874 2872 2870 2867 2865 2863 2861 2859 2858 2856 2854 2852 2851 2849 2847 2846 2844 2842 2841 2839 2837 2834 2832 2830 2827 2824 2822 2819 2816 2813 2811 2809 2806 2803 2800 2797 2793 2790 2788 2785 2780 2776 2772 2768 2764 2759 2755 2753
2889 2888 2885 2884 2883 2882 2882 2882 2881 2879 2877 2876 2874 2872 2870 2868 2866 2864 2862 2860 2858 2856 2855 2853 2851 2850 2848 2846 2844 2843 2841 2839 2837 2835 2834 2832 2829 2827 2825 2822 2819 2817 2814 2811 2808 2805 2803 2800 2797 2794 2791 2787 2784 2782 2778 2775 2770 2766 2762 2758 2753 2749 2746
2884 2882 2880 2878 2878 2877 2876 2876 2875 2873 2872 2871 2869 2867 2865 2863 2860 2858 2856 2855 2853 2852 2851 2849 2847 2845 2843 2841 2839 2838 2836 2834 2832 2831 2829 2827 2825 2822 2820 2817 2814 2811 2808 2805 2802 2799 2797 2794 2791 2788 2785 2781 2778 2775 2772 2769 2765 2760 2756 2751 2747 2743 2739
2878 2876 2874 2873 2873 2872 2871 2870 2869 2867 2866 2866 2864 2862 2860 2857 2855 2853 2851 2849 2848 2847 2846 2844 2843 2841 2839 2837 2835 2833 2832 2829 2828 2826 2824 2822 2820 2818 2815 2812 2809 2806 2803 2800 2797 2794 2791 2788 2785 2781 2778 2775 2771 2769 2766 2762 2759 2754 2750 2745 2740 2736 2733
2872 2871 2869 2868 2867 2866 2866 2865 2863 2862 2861 2860 2858 2856 2854 2852 2850 2848 2846 2844 2843 2843 2842 2840 2838 2837 2835 2833 2831 2829 2827 2825 2823 2821 2819 2817 2815 2813 2810 2806 2804 2801 2797 2795 2792 2788 2785 2782 2779 2775 2771 2768 2765 2762 2759 2756 2752 2748 2743 2738 2734 2729 2725
2867 2866 2864 2863 2862 2861 2860 2859 2858 2857 2856 2855 2853 2851 2849 2847 2845 2843 2841 2840 2839 2838 2838 2836 2834 2833 2831 2829 2826 2825 2823 2821 2819 2816 2814 2812 2809 2807 2805 2801 2798 2795 2792 2789 2786 2782 2779 2776 2772 2768 2765 2761 2758 2755 2752 2749 2745 2741 2736 2731 2727 2723 2718
2862 2860 2859 2858 2858 2856 2854 2854 2853 2852 2851 2849 2848 2846 2844 2842 2841 2839 2837 2836 2835 2834 2833 2832 2830 2828 2826 2824 2822 2820 2818 2816 2814 2811 2808 2806 2804 2801 2799 2796 2793 2790 2786 2783 2780 2776 2773 2769 2765 2762 2758 2754 2751 2748 2745 2742 2738 2734 2730 2725 2720 2716 2712
2859 2856 2855 2854 2853 2851 2850 2849 2848 2847 2846 2844 2842 2841 2839 2838 2836 2835 2834 2832 2830 2829 2828 2827 2825 2823 2821 2819 2817 2815 2813 2811 2809 2806 2803 2801 2798 2796 2794 2791 2788 2784 2781 2777 2773 2770 2767 2763 2759 2755 2751 2747 2744 2741 2738 2735 2732 2727 2723 2718 2713 2709 2704
2855 2853 2852 2851 2849 2847 2846 2845 2844 2843 2841 2839 2837 2836 2834 2833 2832 2831 2830 2828 2826 2825 2823 2822 2820 2818 2816 2814 2812 2810 2808 2806 2803 2801 2798 2796 2793 2790 2788 2785 2782 2778 2775 2771 2767 2764 2760 2756 2752 2749 2745 2740 2736 2734 2731 2728 2724 2720 2716 2711 2707 2702 2698
Wind_Speed
32 32 34 35 37 38 39 39 40 40 40 41 41 41 41 41 41 41 41 41 39 38 36 33 30 29 31 32 30 30 32 33 34 36 36 37 38 38 40 41 43 44 40 38 40 41 39 37 36 35 34 36 37 38 39 40 41 42 43 44 44 45 45
32 33 34 36 37 38 39 40 40 40 41 41 42 41 41 41 41 41 41 39 37 35 34 31 29 29 30 31 30 30 32 33 34 36 36 37 38 38 39 41 42 44 43 41 41 41 38 35 34 34 35 37 39 40 41 41 42 43 43 44 44 45 45
32 34 35 36 37 38 39 40 40 41 41 42 42 42 41 41 41 41 40 37 35 33 32 30 28 29 30 31 30 30 32 34 34 36 36 36 38 39 39 41 43 44 44 43 41 39 37 34 34 34 35 37 40 41 42 42 43 44 44 44 45 46 46
33 34 35 36 38 39 40 40 40 41 42 43 43 42 42 41 41 40 38 35 33 31 30 29 28 28 30 30 30 31 32 34 35 35 36 37 38 39 40 42 43 44 44 43 40 37 36 35 35 35 36 38 41 42 42 43 44 45 45 45 46 47 47
34 35 36 37 38 39 40 40 41 42 43 43 44 43 42 42 41 40 37 34 31 30 29 28 28 28 30 30 31 31 32 34 35 35 37 37 38 40 42 43 43 43 42 40 38 37 35 35 36 36 37 39 43 43 43 44 45 46 46 47 48 48 48
35 35 36 38 39 40 40 41 41 42 43 44 44 44 43 42 41 38 35 32 30 29 29 28 28 28 29 30 31 31 32 33 35 36 37 38 39 41 43 43 42 41 39 37 36 36 36 36 37 38 38 39 42 45 45 46 47 47 47 48 49 49 49
35 36 37 38 39 40 40 41 41 42 43 44 44 44 43 42 40 37 34 31 29 29 28 28 28 29 29 30 31 31 32 33 35 37 38 39 41 42 42 42 40 38 36 35 34 34 36 37 38 39 40 41 42 45 46 47 48 48 48 50 51 51 50
35 36 37 39 40 40 40 41 42 43 44 44 44 44 43 42 40 37 33 30 29 28 28 28 28 29 29 30 31 31 33 34 36 38 39 40 41 42 41 40 38 35 33 33 34 34 36 37 38 39 40 41 43 45 46 47 48 49 50 51 53 53 52
35 37 38 39 40 40 41 41 42 43 44 44 44 44 44 42 39 36 32 30 29 28 27 28 28 29 29 30 31 32 33 35 37 39 41 41 41 41 40 37 35 33 32 33 34 35 36 37 38 39 40 41 43 45 46 47 49 50 51 53 54 53 52
36 37 39 40 40 40 41 41 42 43 44 45 45 45 44 41 38 35 32 31 29 28 27 28 29 29 30 30 31 32 34 35 37 39 40 41 41 40 38 34 32 30 31 33 35 35 36 37 38 39 40 42 44 45 47 48 50 51 52 54 55 54 52
36 38 39 40 40 40 40 41 42 44 44 45 45 45 44 41 36 33 32 31 30 28 27 28 29 29 30 30 31 33 34 36 37 38 39 39 38 36 34 31 31 31 32 34 36 36 36 37 39 39 40 42 44 46 47 49 50 52 53 54 56 56 54
37 39 40 40 40 39 40 40 42 44 44 45 45 45 44 40 35 32 31 31 30 29 28 29 29 30 30 30 32 33 35 37 38 38 37 37 35 32 30 30 31 32 34 35 36 36 36 37 39 40 40 42 45 46 48 49 51 52 53 54 55 56 54
38 39 40 40 40 39 39 40 42 44 44 45 45 44 43 40 35 32 32 32 30 29 29 30 30 31 31 31 33 34 36 38 38 38 37 35 33 30 28 29 30 32 35 36 37 37 36 36 39 41 41 42 45 47 48 50 51 51 53 54 55 55 54
39 39 40 40 39 39 38 39 41 43 44 44 44 42 41 39 35 33 33 32 31 30 31 31 32 32 33 33 34 35 37 38 38 37 35 33 30 28 28 29 30 32 35 36 37 38 37 37 39 41 42 42 44 47 48 50 51 51 52 54 54 53 53
39 39 39 39 39 39 38 39 41 43 43 42 42 41 40 37 35 35 34 33 32 31 31 32 33 34 36 36 36 36 37 38 37 36 34 31 28 27 27 28 31 33 35 35 36 37 37 37 38 40 41 42 43 46 48 50 51 51 53 55 54 54 53
39 39 39 39 39 39 38 38 40 42 42 40 40 39 38 36 35 35 35 33 32 32 32 33 35 36 38 38 38 37 37 38 37 35 32 30 28 27 28 29 32 34 35 34 34 35 35 36 38 39 41 42 44 46 48 50 51 52 53 55 54 53 51
39 39 38 38 39 39 39 38 39 41 40 39 38 38 37 36 35 35 35 34 33 32 33 34 36 38 39 39 38 38 38 38 36 34 32 30 29 28 28 30 33 34 34 34 34 35 35 37 38 40 41 42 44 46 48 50 51 50 51 53 52 52 51
39 39 38 38 38 39 40 38 38 39 39 37 36 36 36 36 36 36 36 36 34 33 33 35 36 38 40 40 39 38 38 37 35 33 32 31 30 30 30 32 33 34 33 33 34 34 35 37 38 39 41 41 42 44 46 48 49 49 50 51 51 51 52
39 38 37 37 38 39 39 38 37 37 36 36 35 36 36 37 36 37 37 37 35 33 34 35 37 38 39 40 39 39 38 37 35 34 32 32 32 32 32 33 34 34 34 34 34 34 35 36 38 39 40 41 42 44 46 47 48 49 50 50 50 50 51
39 38 36 37 38 39 39 38 36 34 34 35 35 36 37 37 37 38 38 37 35 34 35 36 37 38 39 40 40 39 38 37 36 35 34 33 35 35 35 35 34 34 35 35 35 35 36 37 39 40 41 41 42 43 45 46 47 48 48 49 49 49 50
38 38 36 36 37 37 37 36 35 33 33 34 35 36 37 38 38 39 39 38 36 36 37 37 37 38 39 39 40 39 38 37 36 36 35 35 36 37 36 36 35 35 35 36 36 37 38 39 40 41 41 41 42 43 44 45 46 47 47 47 48 48 49
37 38 37 36 36 36 35 34 34 32 32 33 35 36 38 38 39 39 39 39 38 38 38 38 38 38 38 39 39 38 37 37 36 36 36 36 37 38 37 37 37 36 37 37 37 38 39 39 40 41 41 41 41 42 43 44 45 46 46 46 46 47 48
37 38 37 35 34 33 33 33 32 32 32 33 35 37 38 39 38 38 39 40 40 39 39 38 38 37 37 37 37 36 36 36 35 35 36 37 37 38 38 38 38 38 38 38 38 39 39 40 41 42 41 41 42 42 43 44 45 45 45 45 46 46 48
37 38 37 35 33 31 31 31 31 31 32 34 35 37 38 38 38 38 39 40 40 40 39 38 37 36 35 35 34 35 35 34 34 35 35 36 37 38 38 38 38 38 39 39 39 40 40 40 41 42 42 42 42 43 43 45 46 46 46 46 47 47 48
37 37 37 36 33 30 29 30 30 31 32 34 36 37 38 38 37 38 39 40 39 38 38 37 36 35 34 33 33 33 33 33 33 34 35 36 37 38 38 38 39 39 40 40 40 41 41 40 41 42 43 43 43 44 44 46 48 48 47 48 49 48 48
37 37 36 36 34 31 29 29 29 31 33 35 36 38 38 37 37 37 38 38 37 36 36 35 34 33 32 32 32 32 32 32 33 34 35 36 37 38 38 39 39 40 40 41 41 42 41 41 42 43 43 44 44 44 45 47 49 49 49 49 51 51 50
37 36 36 36 35 32 30 29 30 31 33 35 37 37 37 36 36 36 36 36 35 34 34 33 32 32 31 31 32 32 32 32 33 34 35 36 37 37 38 39 40 41 41 42 42 43 42 42 43 44 44 45 45 45 46 47 50 50 50 51 52 53 53
36 35 36 37 35 32 31 30 30 32 34 35 36 36 36 35 34 34 34 33 33 32 31 31 30 31 31 31 32 32 32 33 34 34 35 36 36 37 38 39 40 41 42 43 44 44 43 43 44 45 45 46 47 46 47 48 50 51 52 53 54 55 55
35 35 36 37 34 32 32 31 31 32 34 35 35 36 35 34 33 33 32 31 30 30 29 28 29 29 30 31 31 31 32 33 34 35 35 35 37 37 38 39 40 41 42 44 45 45 45 45 46 46 47 48 48 48 48 50 51 52 53 54 55 56 57
35 35 36 36 34 33 33 32 32 33 34 34 34 35 34 33 32 32 31 30 29 28 27 27 27 28 28 30 30 31 32 33 34 34 34 35 36 37 38 39 40 41 43 44 45 45 46 46 47 48 48 48 49 49 50 51 52 53 54 55 57 57 58
36 35 36 35 34 33 33 33 34 35 34 33 33 34 33 32 31 30 30 29 28 26 25 26 26 26 27 29 30 30 31 33 33 34 34 35 36 36 38 39 40 41 43 44 45 46 47 47 48 49 49 50 50 51 51 52 52 53 55 56 57 58 58
36 36 36 35 34 34 34 33 34 35 35 34 33 33 32 30 29 28 28 28 27 25 24 25 25 25 26 28 29 30 31 32 33 34 34 35 35 36 37 39 41 42 43 44 45 46 47 48 48 49 50 50 51 51 52 52 53 53 55 56 58 58 59
36 36 35 34 34 35 35 35 35 35 35 34 33 33 31 29 27 27 27 27 27 26 25 25 26 26 27 28 30 31 32 33 33 34 35 35 36 36 37 39 41 43 44 44 45 46 47 48 48 50 51 51 52 52 52 52 52 53 55 56 57 58 59
35 35 35 33 33 35 36 36 35 36 35 35 33 32 30 28 26 25 26 27 27 27 27 27 28 28 28 30 31 32 33 33 33 34 35 36 36 37 38 39 41 42 44 45 46 46 47 48 49 50 51 52 53 53 52 52 52 53 54 56 57 57 59
31 33 34 33 33 36 37 36 36 36 36 35 33 30 28 26 24 24 25 27 28 29 29 29 29 30 30 31 31 32 33 33 34 34 35 36 37 38 38 39 41 42 43 44 46 46 47 48 50 51 52 53 54 54 53 53 52 53 54 55 56 57 59
29 30 31 31 33 35 37 36 35 35 35 34 32 30 28 25 23 23 25 27 29 30 30 30 30 31 31 31 32 32 33 34 34 35 35 37 38 38 39 39 40 42 43 44 45 46 47 49 50 51 52 54 55 55 54 53 53 54 55 55 56 58 59
Wind_Direction
285 287 292 296 299 300 301 302 303 304 305 305 305 307 307 309 310 312 312 312 310 308 304 301 298 296 294 294 296 297 297 298 299 299 301 302 303 304 304 304 304 306 307 309 310 310 313 317 316 317 319 318 316 315 314 314 315 315 314 315 316 315 316
285 289 294 297 298 299 300 301 303 304 305 305 305 306 307 309 311 312 312 310 307 304 300 298 297 295 293 293 295 296 296 297 297 298 299 301 301 301 302 303 303 305 307 307 308 310 314 316 317 319 320 319 316 314 315 316 317 317 317 318 319 318 319
287 291 295 297 297 298 299 301 303 304 304 304 305 306 308 310 311 311 310 308 304 300 296 296 295 294 292 293 295 296 296 296 296 297 298 298 299 299 300 301 301 304 305 305 307 311 314 317 318 320 321 318 315 315 317 318 318 319 320 322 321 320 320
289 293 295 296 297 298 299 301 303 303 303 304 305 307 309 310 310 310 308 305 300 296 294 294 294 292 291 292 294 295 294 294 295 296 296 296 297 297 298 299 301 303 305 305 306 310 315 317 319 320 321 317 314 315 318 319 320 321 322 323 321 320 321
291 294 295 296 296 298 300 301 302 303 303 304 305 307 308 309 309 308 306 302 297 293 293 293 291 289 289 291 292 293 292 292 293 293 293 294 295 296 298 300 302 303 304 304 306 310 315 318 318 319 320 317 315 317 319 321 322 322 323 323 322 322 322
292 294 294 295 297 298 300 301 302 302 303 303 305 306 307 308 307 306 302 298 294 292 291 291 289 288 289 290 291 291 290 290 291 291 292 294 296 297 298 300 302 302 303 303 306 311 314 317 317 318 317 316 317 319 321 323 323 323 324 323 322 323 323
292 293 294 295 297 298 299 300 301 301 302 302 304 305 306 306 306 303 299 294 291 291 290 289 288 288 289 290 290 289 289 289 289 290 293 295 297 298 299 300 301 301 302 304 307 311 313 315 317 317 316 317 319 321 323 325 323 323 325 324 323 324 324
291 293 294 295 297 298 299 300 301 300 300 302 303 304 305 305 304 301 297 292 291 290 290 288 287 288 289 289 289 289 290 290 291 292 294 296 297 298 298 299 300 301 302 304 307 310 312 314 315 315 315 319 322 322 324 325 324 324 325 325 324 325 325
291 293 294 296 297 298 299 299 299 299 300 301 302 303 304 304 302 299 293 290 290 290 288 288 288 290 290 290 291 291 291 292 294 295 296 297 298 298 298 298 299 300 302 304 306 309 311 312 313 314 317 321 323 323 324 325 324 325 326 325 325 325 325
291 293 294 296 297 298 298 298 298 299 300 301 301 302 303 303 300 296 292 290 290 289 289 289 291 291 291 291 290 290 290 292 294 295 295 296 296 296 296 296 297 299 302 304 306 309 311 312 313 315 319 322 323 323 324 324 324 325 325 324 324 325 325
292 293 294 295 296 296 296 297 297 298 299 300 301 302 302 300 296 292 290 290 290 290 289 290 290 289 288 288 288 288 290 292 293 293 293 293 293 293 294 295 297 301 303 304 305 309 311 312 313 317 320 322 322 322 323 324 324 325 325 324 323 324 326
291 292 293 294 294 294 295 296 296 297 298 300 301 301 301 299 295 290 288 288 289 290 290 290 289 288 288 289 290 292 293 294 293 293 293 292 291 292 293 296 300 302 303 304 306 308 310 311 313 318 320 320 321 321 322 323 323 323 323 322 322 323 325
291 292 293 293 293 294 294 295 296 297 298 299 300 299 298 297 295 291 289 289 290 292 293 292 291 289 290 292 294 296 296 295 294 294 292 291 290 291 293 295 299 300 301 303 305 307 309 311 313 317 319 319 319 320 321 321 321 322 321 320 321 323 323
291 291 292 293 293 293 294 295 296 297 298 298 298 297 295 295 294 292 291 292 294 295 295 294 292 291 292 295 298 299 297 295 294 292 290 289 288 289 291 294 297 298 298 301 303 306 309 312 313 315 317 318 317 317 318 319 320 321 320 319 321 323 324
290 290 291 292 292 293 293 294 295 296 296 296 295 294 293 293 292 291 292 293 296 297 296 295 295 294 296 298 299 299 297 294 292 290 288 287 287 288 290 293 294 294 295 298 300 303 307 309 310 312 313 314 314 315 316 318 320 321 320 321 323 324 324
289 290 291 291 292 293 294 294 295 295 295 293 292 291 291 291 290 290 292 294 296 297 296 296 296 296 297 298 299 299 296 293 290 287 286 286 286 288 290 291 291 291 294 296 297 299 303 305 307 309 311 313 314 316 317 319 321 322 320 320 322 323 322
289 290 291 291 292 293 294 295 294 294 293 291 289 289 289 289 289 290 291 293 295 295 295 295 295 295 296 297 298 298 295 292 288 286 286 287 287 288 289 289 289 290 292 294 296 300 303 306 308 310 312 314 316 317 318 319 321 321 319 319 320 321 321
290 290 291 292 292 293 294 294 292 291 290 288 286 287 288 288 289 290 290 292 294 294 293 293 294 295 295 297 297 296 293 290 287 285 286 287 288 289 288 288 288 290 293 295 298 301 304 307 309 310 312 314 315 316 318 319 320 320 319 319 320 320 320
290 290 290 291 292 292 293 293 290 287 286 285 284 285 287 287 288 289 289 291 292 292 292 293 294 295 296 296 296 294 291 288 285 284 286 287 288 289 289 289 290 292 295 297 299 302 305 306 308 309 311 313 315 316 318 319 320 320 320 320 320 320 320
290 289 289 289 290 291 292 292 288 284 283 284 284 284 285 287 288 288 289 291 292 292 293 294 294 295 295 295 294 292 289 286 284 284 286 287 288 289 290 291 293 295 297 299 301 304 305 306 307 309 311 313 314 316 318 319 320 320 320 320 321 321 321
288 289 288 288 290 291 291 290 286 282 281 282 283 283 284 286 287 288 290 291 292 293 294 294 294 294 295 293 292 289 287 285 284 284 286 288 288 290 291 293 295 297 298 301 304 305 306 307 307 309 310 313 314 316 317 319 320 320 321 322 322 323 323
287 288 288 288 290 290 289 286 282 281 280 281 281 282 284 286 288 290 291 292 293 294 295 295 295 294 293 292 289 287 284 283 283 285 287 288 289 291 293 295 297 299 300 303 305 305 305 306 306 308 310 312 313 314 315 317 318 320 321 323 324 324 325
287 287 288 289 290 289 286 282 280 280 280 280 281 282 284 287 289 291 292 292 293 294 294 294 294 293 291 288 285 283 281 282 283 286 288 289 290 292 294 296 298 300 301 303 304 304 304 305 306 307 309 310 311 312 313 315 316 318 321 322 323 325 326
286 287 289 291 291 287 282 279 279 280 280 280 281 283 285 287 289 290 291 291 292 293 293 294 293 291 288 285 282 280 280 282 285 287 289 290 291 292 294 295 297 300 301 302 303 303 304 305 306 307 308 309 309 310 312 313 314 316 318 320 321 323 325
287 289 291 292 291 285 279 277 278 279 280 280 281 283 286 287 289 289 289 290 292 294 294 294 293 290 287 283 281 281 282 284 287 288 289 290 291 292 294 296 298 300 301 302 303 303 304 305 306 306 307 307 308 309 311 312 312 314 316 317 318 320 323
288 290 292 292 290 286 279 277 278 278 279 280 282 284 286 287 288 289 289 291 294 295 295 294 292 289 286 284 282 283 284 286 288 289 289 290 292 293 295 297 299 300 300 302 303 303 304 306 306 305 306 306 307 308 310 310 311 312 314 315 316 318 321
289 291 292 291 289 285 281 278 278 278 279 280 282 284 286 287 289 290 291 294 296 296 295 294 291 288 286 285 285 286 287 288 289 290 291 293 294 295 296 297 298 300 301 302 303 303 305 306 305 304 305 305 306 307 309 309 310 311 312 313 314 316 319
290 291 291 290 287 284 280 279 279 280 280 281 283 284 286 288 290 291 293 296 297 296 295 294 291 289 288 288 288 289 291 292 293 293 294 295 295 296 296 297 299 301 301 302 303 304 305 305 304 304 304 304 305 306 307 308 309 310 311 312 312 314 317
290 290 289 287 286 282 280 279 279 281 281 282 284 286 289 291 292 293 295 297 297 296 295 293 291 290 289 290 291 292 293 294 294 294 295 296 295 296 297 298 299 301 301 302 303 304 305 305 304 304 304 304 304 305 306 306 307 308 309 310 311 313 315
290 289 287 286 284 282 281 280 280 281 283 284 287 289 292 294 294 295 297 299 297 297 297 295 292 292 292 292 293 294 295 294 295 296 296 296 296 297 298 299 300 300 301 302 303 304 304 304 303 303 303 303 303 304 305 305 306 307 308 309 310 312 314
290 288 286 284 282 281 281 282 281 283 286 288 289 291 293 293 294 297 300 300 299 300 300 297 296 296 296 296 296 297 296 296 296 297 297 297 298 298 299 300 300 300 301 302 303 303 303 303 303 303 303 303 303 304 304 305 306 307 308 308 309 311 313
288 286 284 282 281 281 282 283 283 285 288 290 291 292 292 292 294 299 300 300 300 301 301 299 299 300 299 298 298 298 298 298 298 298 298 298 299 299 300 301 301 301 302 302 302 302 302 302 303 303 302 302 303 303 304 305 306 307 307 308 309 311 313
286 284 282 281 282 283 284 284 285 286 289 291 292 291 291 292 296 300 300 299 300 301 301 301 302 302 301 300 299 299 299 299 299 299 299 300 301 301 302 302 302 303 303 303 302 302 303 303 303 302 303 303 303 303 305 306 307 308 308 308 309 311 313
284 282 281 281 282 284 284 285 287 288 290 291 291 290 289 292 296 299 298 298 299 300 301 302 302 303 302 301 301 301 300 300 301 301 302 303 304 305 305 305 304 304 304 304 303 303 303 303 303 303 303 303 303 304 305 307 308 308 308 309 310 311 312
277 277 278 280 281 282 284 285 287 288 289 290 289 288 288 291 295 296 296 297 298 300 302 303 303 303 303 303 303 303 303 303 304 304 305 306 307 307 308 307 307 307 306 306 305 305 305 304 303 303 303 303 304 305 306 307 308 308 308 308 310 311 312
272 270 272 276 278 279 281 283 285 286 287 288 288 287 287 289 292 293 294 295 298 299 301 303 304 304 305 305 305 305 305 306 306 307 308 308 309 309 310 310 310 309 309 309 308 308 307 305 305 304 303 303 304 305 306 307 307 307 307 308 310 311 312